| time (UTC) | temp F | wind direction | speed MPH | gust MPH | rain 1hr in | rain 24hr in | rain mn in | humidity % | barometer mb |
| 20260503232017 | 58 | 113 | 2.0 | 3.0 | 0.00 | 0.00 | 0.00 | 28 | 1009.0 |
| 20260503231516 | 58 | 68 | 1.0 | 4.0 | 0.00 | 0.00 | 0.00 | 28 | 1009.0 |
| 20260503231016 | 58 | 184 | 0.0 | 3.0 | 0.00 | 0.00 | 0.00 | 27 | 1009.0 |
| 20260503230516 | 58 | 160 | 0.0 | 2.0 | 0.00 | 0.00 | 0.00 | 27 | 1009.0 |
| 20260503230016 | 58 | 306 | 1.0 | 4.0 | 0.00 | 0.00 | 0.00 | 27 | 1009.0 |
| 20260503225516 | 58 | 262 | 5.0 | 5.0 | 0.00 | 0.00 | 0.00 | 26 | 1009.0 |
| 20260503225016 | 58 | 61 | 5.0 | 5.0 | 0.00 | 0.00 | 0.00 | 27 | 1009.0 |
| 20260503224516 | 58 | 328 | 1.0 | 5.0 | 0.00 | 0.00 | 0.00 | 27 | 1009.0 |
| 20260503224016 | 58 | 164 | 2.0 | 6.0 | 0.00 | 0.00 | 0.00 | 26 | 1009.0 |
| 20260503223517 | 58 | 4 | 2.0 | 5.0 | 0.00 | 0.00 | 0.00 | 27 | 1009.0 |
| 20260503223016 | 58 | 260 | 1.0 | 4.0 | 0.00 | 0.00 | 0.00 | 27 | 1009.0 |
| 20260503222517 | 57 | 184 | 0.0 | 5.0 | 0.00 | 0.00 | 0.00 | 27 | 1009.0 |
| 20260503222017 | 58 | 262 | 3.0 | 5.0 | 0.00 | 0.00 | 0.00 | 26 | 1009.0 |
| 20260503221516 | 58 | 206 | 3.0 | 3.0 | 0.00 | 0.00 | 0.00 | 26 | 1009.0 |
| 20260503221016 | 58 | 147 | 2.0 | 5.0 | 0.00 | 0.00 | 0.00 | 26 | 1009.0 |
| 20260503220517 | 59 | 28 | 2.0 | 6.0 | 0.00 | 0.00 | 0.00 | 25 | 1009.0 |
| 20260503220016 | 59 | 256 | 4.0 | 7.0 | 0.00 | 0.00 | 0.00 | 26 | 1009.0 |
| 20260503215517 | 59 | 12 | 1.0 | 2.0 | 0.00 | 0.00 | 0.00 | 27 | 1008.0 |
| 20260503215017 | 59 | 331 | 2.0 | 6.0 | 0.00 | 0.00 | 0.00 | 26 | 1009.0 |
| 20260503214516 | 59 | 19 | 1.0 | 4.0 | 0.00 | 0.00 | 0.00 | 27 | 1009.0 |
| 20260503214016 | 60 | 349 | 2.0 | 4.0 | 0.00 | 0.00 | 0.00 | 25 | 1009.0 |
| 20260503213516 | 60 | 266 | 5.0 | 6.0 | 0.00 | 0.00 | 0.00 | 25 | 1009.0 |
| 20260503213016 | 59 | 234 | 4.0 | 9.0 | 0.00 | 0.00 | 0.00 | 25 | 1009.0 |
| 20260503212516 | 59 | 319 | 6.0 | 12.0 | 0.00 | 0.00 | 0.00 | 25 | 1009.0 |
| 20260503212016 | 59 | 25 | 4.0 | 7.0 | 0.00 | 0.00 | 0.00 | 26 | 1009.0 |
| 20260503211516 | 60 | 219 | 4.0 | 8.0 | 0.00 | 0.00 | 0.00 | 25 | 1009.0 |
| 20260503211017 | 59 | 169 | 2.0 | 6.0 | 0.00 | 0.00 | 0.00 | 25 | 1009.0 |
| 20260503210517 | 59 | 95 | 0.0 | 4.0 | 0.00 | 0.00 | 0.00 | 25 | 1009.0 |
| 20260503210016 | 57 | 70 | 4.0 | 6.0 | 0.00 | 0.00 | 0.00 | 26 | 1009.0 |
| 20260503205516 | 58 | 28 | 8.0 | 10.0 | 0.00 | 0.00 | 0.00 | 25 | 1009.0 |
| 20260503205017 | 58 | 8 | 2.0 | 11.0 | 0.00 | 0.00 | 0.00 | 25 | 1009.0 |
| 20260503204516 | 57 | 21 | 1.0 | 7.0 | 0.00 | 0.00 | 0.00 | 26 | 1009.0 |
| 20260503204016 | 57 | 87 | 3.0 | 12.0 | 0.00 | 0.00 | 0.00 | 26 | 1009.0 |
| 20260503203516 | 59 | 354 | 6.0 | 13.0 | 0.00 | 0.00 | 0.00 | 25 | 1009.0 |
| 20260503203017 | 59 | 307 | 3.0 | 5.0 | 0.00 | 0.00 | 0.00 | 26 | 1009.0 |
| 20260503202516 | 59 | 249 | 2.0 | 3.0 | 0.00 | 0.00 | 0.00 | 26 | 1009.0 |
| 20260503202017 | 59 | 286 | 2.0 | 10.0 | 0.00 | 0.00 | 0.00 | 24 | 1009.0 |
| 20260503201517 | 59 | 339 | 3.0 | 3.0 | 0.00 | 0.00 | 0.00 | 28 | 1009.0 |
| 20260503201016 | 57 | 11 | 2.0 | 7.0 | 0.00 | 0.00 | 0.00 | 27 | 1009.0 |
| 20260503200516 | 57 | 0 | 2.0 | 7.0 | 0.00 | 0.00 | 0.00 | 27 | 1009.0 |
| 20260503200018 | 57 | 267 | 2.0 | 9.0 | 0.00 | 0.00 | 0.00 | 27 | 1009.0 |
| 20260503195517 | 57 | 145 | 2.0 | 9.0 | 0.00 | 0.00 | 0.00 | 27 | 1009.0 |
| 20260503195016 | 55 | 199 | 4.0 | 11.0 | 0.00 | 0.00 | 0.00 | 28 | 1009.0 |
| 20260503194516 | 55 | 37 | 3.0 | 9.0 | 0.00 | 0.00 | 0.00 | 27 | 1009.0 |
| 20260503194017 | 58 | 352 | 5.0 | 17.0 | 0.00 | 0.00 | 0.00 | 26 | 1009.0 |
| 20260503193516 | 60 | 328 | 3.0 | 9.0 | 0.00 | 0.00 | 0.00 | 25 | 1009.0 |
| 20260503193017 | 59 | 235 | 1.0 | 4.0 | 0.00 | 0.00 | 0.00 | 27 | 1009.0 |
| 20260503192517 | 59 | 108 | 2.0 | 5.0 | 0.00 | 0.00 | 0.00 | 28 | 1009.0 |
| 20260503192019 | 58 | 280 | 1.0 | 7.0 | 0.00 | 0.00 | 0.00 | 27 | 1009.0 |
| 20260503191518 | 57 | 295 | 3.0 | 8.0 | 0.00 | 0.00 | 0.00 | 27 | 1009.0 |
| 20260503191017 | 57 | 13 | 6.0 | 7.0 | 0.00 | 0.00 | 0.00 | 28 | 1009.0 |
| 20260503190516 | 57 | 50 | 7.0 | 9.0 | 0.00 | 0.00 | 0.00 | 28 | 1009.0 |
| 20260503190017 | 58 | 29 | 10.0 | 13.0 | 0.00 | 0.00 | 0.00 | 27 | 1010.0 |
| 20260503185517 | 58 | 0 | 4.0 | 6.0 | 0.00 | 0.00 | 0.00 | 27 | 1010.0 |
| 20260503185017 | 57 | 341 | 3.0 | 10.0 | 0.00 | 0.00 | 0.00 | 28 | 1010.0 |
| 20260503184516 | 56 | 260 | 4.0 | 9.0 | 0.00 | 0.00 | 0.00 | 29 | 1010.0 |
| 20260503184016 | 56 | 24 | 8.0 | 10.0 | 0.00 | 0.00 | 0.00 | 30 | 1010.0 |
| 20260503183516 | 56 | 342 | 7.0 | 13.0 | 0.00 | 0.00 | 0.00 | 28 | 1010.0 |
| 20260503183016 | 55 | 4 | 4.0 | 5.0 | 0.00 | 0.00 | 0.00 | 31 | 1010.0 |
| 20260503182516 | 55 | 65 | 5.0 | 9.0 | 0.00 | 0.00 | 0.00 | 31 | 1010.0 |
| 20260503182017 | 54 | 203 | 1.0 | 6.0 | 0.00 | 0.00 | 0.00 | 32 | 1010.0 |
| 20260503181516 | 53 | 359 | 7.0 | 17.0 | 0.00 | 0.00 | 0.00 | 31 | 1010.0 |
| 20260503181016 | 54 | 76 | 2.0 | 8.0 | 0.00 | 0.00 | 0.00 | 31 | 1010.0 |
| 20260503180516 | 54 | 295 | 3.0 | 15.0 | 0.00 | 0.00 | 0.00 | 31 | 1010.0 |
| 20260503180017 | 54 | 214 | 2.0 | 9.0 | 0.00 | 0.00 | 0.00 | 31 | 1010.0 |
| 20260503175516 | 53 | 39 | 5.0 | 11.0 | 0.00 | 0.00 | 0.00 | 32 | 1010.0 |
| 20260503175016 | 53 | 51 | 4.0 | 7.0 | 0.00 | 0.00 | 0.00 | 34 | 1010.0 |
| 20260503174517 | 54 | 5 | 3.0 | 9.0 | 0.00 | 0.00 | 0.00 | 32 | 1010.0 |
| 20260503174016 | 55 | 126 | 5.0 | 5.0 | 0.00 | 0.00 | 0.00 | 31 | 1010.0 |
| 20260503173516 | 55 | 316 | 3.0 | 9.0 | 0.00 | 0.00 | 0.00 | 33 | 1010.0 |
| 20260503173017 | 53 | 25 | 0.0 | 4.0 | 0.00 | 0.00 | 0.00 | 34 | 1010.0 |
| 20260503172517 | 53 | 23 | 7.0 | 10.0 | 0.00 | 0.00 | 0.00 | 35 | 1011.0 |
| 20260503172016 | 52 | 55 | 3.0 | 9.0 | 0.00 | 0.00 | 0.00 | 35 | 1011.0 |
| 20260503171517 | 52 | 44 | 13.0 | 17.0 | 0.00 | 0.00 | 0.00 | 35 | 1010.0 |
| 20260503171016 | 52 | 345 | 5.0 | 11.0 | 0.00 | 0.00 | 0.00 | 36 | 1011.0 |
| 20260503170516 | 51 | 343 | 3.0 | 7.0 | 0.00 | 0.00 | 0.00 | 37 | 1011.0 |
| 20260503150516 | 47 | 250 | 5.0 | 9.0 | 0.00 | 0.00 | 0.00 | 41 | 1012.0 |
| 20260503131016 | 44 | 237 | 4.0 | 10.0 | 0.00 | 0.00 | 0.00 | 52 | 1011.0 |
| 20260503130516 | 44 | 125 | 2.0 | 10.0 | 0.00 | 0.00 | 0.00 | 52 | 1011.0 |
| 20260503110517 | 42 | 113 | 3.0 | 6.0 | 0.00 | 0.00 | 0.00 | 59 | 1011.0 |
| 20260503081516 | 44 | 15 | 5.0 | 7.0 | 0.00 | 0.00 | 0.00 | 52 | 1010.0 |
| 20260503081016 | 44 | 35 | 0.0 | 4.0 | 0.00 | 0.00 | 0.00 | 53 | 1010.0 |
| 20260503080517 | 44 | 106 | 0.0 | 4.0 | 0.00 | 0.00 | 0.00 | 52 | 1010.0 |
| 20260503072516 | 44 | 9 | 2.0 | 5.0 | 0.00 | 0.00 | 0.00 | 52 | 1009.0 |
| 20260503072016 | 44 | 56 | 3.0 | 4.0 | 0.00 | 0.00 | 0.00 | 51 | 1010.0 |
| 20260503071517 | 44 | 25 | 0.0 | 3.0 | 0.00 | 0.00 | 0.00 | 51 | 1009.0 |
| 20260503071017 | 45 | 358 | 3.0 | 4.0 | 0.00 | 0.00 | 0.00 | 50 | 1010.0 |
| 20260503070517 | 45 | 28 | 3.0 | 4.0 | 0.00 | 0.00 | 0.00 | 50 | 1010.0 |
| 20260503055016 | 46 | 50 | 0.0 | 3.0 | 0.00 | 0.00 | 0.00 | 47 | 1010.0 |
| 20260503054516 | 46 | 17 | 0.0 | 4.0 | 0.00 | 0.00 | 0.00 | 46 | 1010.0 |
| 20260503054016 | 46 | 30 | 3.0 | 5.0 | 0.00 | 0.00 | 0.00 | 45 | 1010.0 |
| 20260503053516 | 46 | 215 | 1.0 | 6.0 | 0.00 | 0.00 | 0.00 | 45 | 1010.0 |
| 20260503053016 | 46 | 40 | 4.0 | 5.0 | 0.00 | 0.00 | 0.00 | 46 | 1010.0 |
| 20260503052516 | 47 | 2 | 2.0 | 3.0 | 0.00 | 0.00 | 0.00 | 46 | 1010.0 |
| 20260503052016 | 47 | 36 | 2.0 | 3.0 | 0.00 | 0.00 | 0.00 | 46 | 1010.0 |
| 20260503051516 | 47 | 32 | 0.0 | 7.0 | 0.00 | 0.00 | 0.00 | 44 | 1010.0 |
| 20260503051016 | 47 | 5 | 3.0 | 7.0 | 0.00 | 0.00 | 0.00 | 44 | 1010.0 |
| 20260503050517 | 47 | 54 | 2.0 | 4.0 | 0.00 | 0.00 | 0.00 | 45 | 1010.0 |
| 20260503050017 | 47 | 38 | 3.0 | 8.0 | 0.00 | 0.00 | 0.00 | 44 | 1010.0 |
| 20260503045516 | 47 | 32 | 2.0 | 3.0 | 0.00 | 0.00 | 0.00 | 45 | 1010.0 |
| 20260503045016 | 47 | 75 | 3.0 | 3.0 | 0.00 | 0.00 | 0.00 | 46 | 1010.0 |
| 20260503044516 | 47 | 35 | 1.0 | 3.0 | 0.00 | 0.00 | 0.00 | 44 | 1010.0 |
| 20260503044017 | 47 | 30 | 3.0 | 4.0 | 0.00 | 0.00 | 0.00 | 45 | 1010.0 |
| 20260503043516 | 47 | 27 | 2.0 | 3.0 | 0.00 | 0.00 | 0.00 | 44 | 1010.0 |
| 20260503043016 | 47 | 336 | 2.0 | 4.0 | 0.00 | 0.00 | 0.00 | 45 | 1010.0 |
| 20260503042516 | 48 | 11 | 1.0 | 3.0 | 0.00 | 0.00 | 0.00 | 45 | 1010.0 |
| 20260503042016 | 48 | 358 | 3.0 | 5.0 | 0.00 | 0.00 | 0.00 | 44 | 1010.0 |
| 20260503041516 | 48 | 214 | 0.0 | 5.0 | 0.00 | 0.00 | 0.00 | 44 | 1010.0 |
| 20260503041016 | 48 | 20 | 2.0 | 3.0 | 0.00 | 0.00 | 0.00 | 43 | 1010.0 |
| 20260503040516 | 48 | 98 | 1.0 | 3.0 | 0.00 | 0.00 | 0.00 | 43 | 1010.0 |
| 20260503040016 | 48 | 76 | 4.0 | 5.0 | 0.00 | 0.00 | 0.00 | 43 | 1010.0 |
| 20260503035516 | 48 | 26 | 1.0 | 3.0 | 0.00 | 0.00 | 0.00 | 43 | 1010.0 |
| 20260503035017 | 48 | 44 | 3.0 | 3.0 | 0.00 | 0.00 | 0.00 | 42 | 1010.0 |
| 20260503034516 | 48 | 18 | 3.0 | 5.0 | 0.00 | 0.00 | 0.00 | 42 | 1010.0 |
| 20260503034016 | 48 | 20 | 4.0 | 6.0 | 0.00 | 0.00 | 0.00 | 41 | 1010.0 |
| 20260503033516 | 48 | 22 | 3.0 | 5.0 | 0.00 | 0.00 | 0.00 | 42 | 1010.0 |
| 20260503033016 | 49 | 80 | 0.0 | 2.0 | 0.00 | 0.00 | 0.00 | 41 | 1010.0 |
| 20260503032516 | 49 | 305 | 2.0 | 5.0 | 0.00 | 0.00 | 0.00 | 41 | 1010.0 |
| 20260503032017 | 49 | 32 | 0.0 | 3.0 | 0.00 | 0.00 | 0.00 | 40 | 1010.0 |
| 20260503031518 | 49 | 24 | 3.0 | 4.0 | 0.00 | 0.00 | 0.00 | 41 | 1010.0 |
| 20260503031016 | 49 | 1 | 1.0 | 5.0 | 0.00 | 0.00 | 0.00 | 40 | 1010.0 |
| 20260503030516 | 49 | 33 | 3.0 | 5.0 | 0.00 | 0.00 | 0.00 | 40 | 1010.0 |
| 20260503030017 | 49 | 30 | 2.0 | 5.0 | 0.00 | 0.00 | 0.00 | 39 | 1010.0 |
| 20260503025517 | 49 | 5 | 4.0 | 5.0 | 0.00 | 0.00 | 0.00 | 41 | 1010.0 |
| 20260503025016 | 49 | 30 | 4.0 | 4.0 | 0.00 | 0.00 | 0.00 | 40 | 1010.0 |
| 20260503024516 | 50 | 52 | 3.0 | 3.0 | 0.00 | 0.00 | 0.00 | 41 | 1010.0 |
| 20260503024017 | 50 | 26 | 0.0 | 4.0 | 0.00 | 0.00 | 0.00 | 39 | 1010.0 |
| 20260503023516 | 50 | 27 | 5.0 | 5.0 | 0.00 | 0.00 | 0.00 | 39 | 1010.0 |
| 20260503023017 | 50 | 17 | 1.0 | 3.0 | 0.00 | 0.00 | 0.00 | 40 | 1010.0 |
| 20260503022516 | 50 | 27 | 2.0 | 3.0 | 0.00 | 0.00 | 0.00 | 39 | 1010.0 |
| 20260503022017 | 50 | 3 | 1.0 | 4.0 | 0.00 | 0.00 | 0.00 | 39 | 1010.0 |
| 20260503021516 | 50 | 333 | 1.0 | 3.0 | 0.00 | 0.00 | 0.00 | 39 | 1010.0 |
| 20260503021017 | 50 | 21 | 2.0 | 3.0 | 0.00 | 0.00 | 0.00 | 39 | 1010.0 |
| 20260503020517 | 50 | 23 | 2.0 | 4.0 | 0.00 | 0.00 | 0.00 | 38 | 1010.0 |
| 20260503020017 | 50 | 71 | 2.0 | 4.0 | 0.00 | 0.00 | 0.00 | 38 | 1010.0 |
| 20260503015517 | 50 | 51 | 2.0 | 4.0 | 0.00 | 0.00 | 0.00 | 38 | 1010.0 |
| 20260503015016 | 51 | 19 | 1.0 | 3.0 | 0.00 | 0.00 | 0.00 | 40 | 1010.0 |
| 20260503014517 | 51 | 31 | 0.0 | 4.0 | 0.00 | 0.00 | 0.00 | 38 | 1010.0 |
| 20260503014016 | 51 | 58 | 0.0 | 2.0 | 0.00 | 0.00 | 0.00 | 39 | 1010.0 |
| 20260503013517 | 51 | 97 | 1.0 | 3.0 | 0.00 | 0.00 | 0.00 | 39 | 1010.0 |
| 20260503013017 | 51 | 21 | 3.0 | 3.0 | 0.00 | 0.00 | 0.00 | 39 | 1010.0 |
| 20260503012516 | 51 | 81 | 1.0 | 4.0 | 0.00 | 0.00 | 0.00 | 39 | 1010.0 |
| 20260503012017 | 51 | 37 | 0.0 | 3.0 | 0.00 | 0.00 | 0.00 | 39 | 1010.0 |
| 20260503011516 | 51 | 25 | 3.0 | 3.0 | 0.00 | 0.00 | 0.00 | 40 | 1010.0 |
| 20260503011017 | 51 | 26 | 2.0 | 2.0 | 0.00 | 0.00 | 0.00 | 39 | 1010.0 |
| 20260503010516 | 51 | 43 | 0.0 | 3.0 | 0.00 | 0.00 | 0.00 | 39 | 1010.0 |
| 20260503010016 | 51 | 34 | 1.0 | 3.0 | 0.00 | 0.00 | 0.00 | 39 | 1010.0 |
| 20260503005517 | 51 | 30 | 2.0 | 3.0 | 0.00 | 0.00 | 0.00 | 39 | 1010.0 |
| 20260503005016 | 51 | 1 | 2.0 | 3.0 | 0.00 | 0.00 | 0.00 | 39 | 1010.0 |
| 20260503004516 | 51 | 47 | 2.0 | 3.0 | 0.00 | 0.00 | 0.00 | 38 | 1010.0 |
| 20260503004016 | 51 | 6 | 1.0 | 3.0 | 0.00 | 0.00 | 0.00 | 38 | 1010.0 |
| 20260503003516 | 51 | 59 | 1.0 | 3.0 | 0.00 | 0.00 | 0.00 | 38 | 1010.0 |
| 20260503003016 | 52 | 88 | 2.0 | 3.0 | 0.00 | 0.00 | 0.00 | 39 | 1009.0 |
| 20260503002516 | 52 | 6 | 2.0 | 4.0 | 0.00 | 0.00 | 0.00 | 38 | 1010.0 |
| 20260503002017 | 52 | 33 | 2.0 | 3.0 | 0.00 | 0.00 | 0.00 | 38 | 1010.0 |
| 20260503001516 | 52 | 28 | 2.0 | 2.0 | 0.00 | 0.00 | 0.00 | 38 | 1009.0 |
| 20260503001016 | 52 | 348 | 2.0 | 3.0 | 0.00 | 0.00 | 0.00 | 38 | 1010.0 |
| 20260503000516 | 52 | 95 | 0.0 | 2.0 | 0.00 | 0.00 | 0.00 | 38 | 1009.0 |
| 20260503000016 | 52 | 22 | 2.0 | 3.0 | 0.00 | 0.00 | 0.00 | 38 | 1010.0 |
| 20260502235516 | 52 | 21 | 2.0 | 2.0 | 0.00 | 0.00 | 0.00 | 37 | 1009.0 |
| 20260502235016 | 52 | 19 | 2.0 | 3.0 | 0.00 | 0.00 | 0.00 | 37 | 1009.0 |
| 20260502234516 | 53 | 21 | 2.0 | 4.0 | 0.00 | 0.00 | 0.00 | 37 | 1009.0 |
| 20260502234016 | 53 | 224 | 0.0 | 3.0 | 0.00 | 0.00 | 0.00 | 36 | 1010.0 |
| 20260502233516 | 53 | 21 | 2.0 | 3.0 | 0.00 | 0.00 | 0.00 | 36 | 1009.0 |
| 20260502233016 | 53 | 1 | 0.0 | 3.0 | 0.00 | 0.00 | 0.00 | 37 | 1009.0 |
| 20260502232516 | 53 | 23 | 0.0 | 4.0 | 0.00 | 0.00 | 0.00 | 36 | 1009.0 |